Regional Weather Roundup
Issued by NWS

Home | Current Version | Previous Version | Text Only | Print | Product List | Glossary Off
Versions: 1 2 3 4 5 6 7 8 9 10 11 12 13 14 15 16 17 18 19 20 21 22 23 24 25 26 27 28 29 30 31 32 33 34 35 36 37 38 39 40 41 42 43 44 45 46 47 48 49 50

000
ASUS43 KLMK 191410
RWRKY
KENTUCKY REGIONAL WEATHER ROUNDUP
NATIONAL WEATHER SERVICE LOUISVILLE KY
1000 AM EDT THU OCT 19 2017

NOTE "FAIR" INDICATES FEW OR NO CLOUDS BELOW 12,000 FEET
WITH NO SIGNIFICANT WEATHER AND/OR OBSTRUCTIONS TO VISIBILITY.

KYZ001>023-026-027-061>063-070>075-191500-
WESTERN AND SOUTH CENTRAL KENTUCKY

CITY           SKY/WX    TMP DP  RH WIND       PRES   REMARKS
PADUCAH        SUNNY     59  47  64 SW7       30.25R
HENDERSON      SUNNY     59  50  72 S10       30.26
OWENSBORO      SUNNY     56  49  77 S8        30.27R
HOPKINSVILLE   SUNNY     55  46  73 S5        30.29R
BOWLING GREEN  SUNNY     53  49  86 SE5       30.31R
GLASGOW        SUNNY     55  49  78 S3        30.32R
$$

KYZ024-025-028>034-038-045-046-053-191500-
NORTH CENTRAL KENTUCKY

CITY           SKY/WX    TMP DP  RH WIND       PRES   REMARKS
LOUISVILLE/SDF SUNNY     57  47  69 S6        30.27R
LOUISVILLE/LOU SUNNY     56  49  77 S7        30.28R
FORT KNOX      SUNNY     55  47  74 S9        30.26R
$$

KYZ035>037-039>044-047>052-055>060-089>105-191500-
NORTHEAST KENTUCKY

CITY           SKY/WX    TMP DP  RH WIND       PRES   REMARKS
LEXINGTON      SUNNY     57  48  72 SW12      30.30R
COVINGTON      MOSUNNY   55  48  77 SW9       30.25R
FRANKFORT        N/A     56  47  71 S6        30.27R
$$

KYZ054-064>069-076>088-106>120-191500-
SOUTHEAST KENTUCKY

CITY           SKY/WX    TMP DP  RH WIND       PRES   REMARKS
JACKSON        SUNNY     53  45  74 CALM      30.33R
LONDON         SUNNY     50  46  86 S5        30.35R
SOMERSET       SUNNY     52  48  87 S5        30.35R
MIDDLESBORO    SUNNY     44  44 100 CALM      30.38R
MONTICELLO     SUNNY     56  48  74 NW8       30.36R
$$




USA.gov is the U.S. government's official web portal to all federal, state and local government web resources and services.